Location: Kitchener-Waterloo
(43.4500°N, 80.5000°W)
Time: 18:54:48
(UTC-04:00)

Daily predictions for brighter satellites

Satellite Brightness Start Highest point End
(mag) Time Altitude Azimuth Time Altitude Azimuth Time Altitude Azimuth
NOSS 3-1 (A) 4.3 19:27:45 10° NNW 19:35:02 52° NE 19:43:06 10° ESE
Cosmos 841 Rocket 3.9 19:33:39 10° S 19:38:23 39° ESE 19:43:09 10° NE
Cosmos 468 Rocket 4.1 19:34:15 10° SSW 19:39:29 87° WNW 19:44:47 10° NNE
Cosmos 1340 Rocket 2.8 19:36:16 10° N 19:40:21 77° E 19:44:25 10° SSE
Cosmos 1937 Rocket 3.5 19:36:06 10° NNW 19:41:26 83° ENE 19:46:43 10° SSE
Cosmos 1726 Rocket 3.6 19:37:41 10° S 19:41:58 60° E 19:46:15 10° NNE
Cosmos 389 Rocket 2.4 19:39:43 10° S 19:43:13 87° E 19:46:43 10° N
FREGAT/IRIS 3.4 19:40:40 10° SE 19:43:23 31° ENE 19:46:08 10° N
NOSS 3-1 (C) 4.1 19:36:17 10° NNW 19:43:48 70° NE 19:52:10 10° SE
Cosmos 2084 3.2 19:43:34 10° SSW 19:47:36 65° SE 19:51:29 10° NE
Cosmos 2074 Rocket 4.4 19:44:09 10° SSE 19:49:52 40° E 19:55:35 10° NNE
Cosmos 2298 Rocket 4.3 19:47:12 10° NNW 19:52:33 79° WSW 19:57:52 10° SSE
Cosmos 1943 Rocket 3.0 19:47:57 10° NNW 19:53:25 55° WSW 19:58:52 10° S
Cosmos 540 Rocket 4.3 19:51:08 10° SSE 19:55:25 28° E 19:59:43 10° NE
Cosmos 1709 Rocket 4.3 19:50:57 10° SSW 19:57:18 78° W 20:03:44 10° N
Cosmos 1763 Rocket 3.4 19:52:29 10° SSW 19:57:34 78° ESE 20:02:46 10° NNE
Meteor 1-24 Rocket 4.1 19:54:02 10° N 19:59:50 49° ENE 20:05:26 10° SSE
HJ-1C 4.0 19:57:51 10° SE 20:00:56 35° ENE 20:04:02 10° N
Cosmos 371 Rocket 4.4 19:56:48 10° SW 20:01:31 49° WNW 20:06:16 10° N
Cosmos 2228 2.9 20:03:17 10° S 20:07:38 77° E 20:11:59 10° NNE
SJ-6B 2.8 20:09:41 10° SSE 20:13:38 62° ENE 20:17:32 10° N
Cosmos 1953 3.9 20:17:36 17° E 20:17:36 17° E 20:19:58 10° NE
Resurs 01 Rocket 2.3 20:14:18 12° SE 20:17:57 34° ENE 20:21:56 10° N
Cosmos 1356 Rocket 3.4 20:15:05 10° N 20:19:25 82° E 20:23:43 10° SSE
GP-B 3.9 20:16:02 10° NNE 20:19:56 29° E 20:23:34 11° SE
Cosmos 1812 Rocket 4.2 20:17:31 10° SSE 20:21:32 34° E 20:25:36 10° NNE
Thor Agena Rocket 3.8 20:18:36 10° NNE 20:23:52 76° WNW 20:29:02 10° SSW
H-2A R/B 2.7 20:21:53 10° S 20:25:36 83° W 20:29:23 10° NNW
Cosmos 2184 Rocket 4.0 20:21:14 10° S 20:27:30 76° E 20:33:53 10° N
Cosmos 2058 Rocket 3.7 20:23:22 10° SSW 20:27:40 60° W 20:32:01 10° N
Cosmos 1656 Rocket 4.0 20:22:10 10° NNW 20:27:46 67° WSW 20:33:16 10° SSE
Spot 2 Rocket 3.9 20:24:52 14° SE 20:28:45 41° ENE 20:33:28 10° N
BREEZE-M DEB (TANK) 2.5 20:30:32 10° NW 20:32:31 24° N 20:32:50 23° NNE
Cosmos 836 Rocket 4.4 20:27:52 10° S 20:33:05 65° ESE 20:38:18 10° NNE
Meteor 2-19 Rocket 4.5 20:29:17 10° SSE 20:35:07 53° E 20:40:59 10° NNE
USA 186 3.3 20:36:33 16° NNE 20:36:33 16° NNE 20:37:16 10° NNE
Cosmos 292 Rocket 4.5 20:35:01 10° SSE 20:39:15 31° E 20:43:31 10° NE
Milstar 3 Cent rocket 3.9 20:39:28 10° SSW 20:41:15 12° S 20:42:11 11° SSE
Meteor 1-22 Rocket 4.2 20:36:54 10° S 20:42:37 86° W 20:48:08 10° N
YAOGAN 6 4.3 20:46:00 19° NE 20:46:00 19° NE 20:47:45 10° NNE
COSMOS 2406 3.2 20:39:37 10° SSW 20:45:20 88° ESE 20:51:07 10° NNE
Okean 3 Rocket 4.3 20:42:42 10° N 20:46:43 31° ENE 20:46:57 31° E
Cosmos 1766 3.5 20:42:47 10° SSW 20:46:43 71° W 20:50:37 10° N
Cosmos 2327 Rocket 4.5 20:41:32 10° S 20:47:39 83° W 20:53:46 10° N
ISS -2.3 20:45:17 10° SSW 20:47:03 23° S 20:47:03 23° S
MOS 1-B Rocket 3.9 20:43:09 12° SSE 20:48:45 63° ENE 20:54:19 10° N
Cosmos 1544 3.1 20:46:19 10° SSW 20:49:55 75° W 20:53:33 10° N
Cosmos 1125 Rocket 3.5 20:47:32 10° NNW 20:52:52 86° WSW 20:57:04 17° SSE
Cosmos 1356 3.3 20:51:51 10° N 20:55:22 80° E 20:56:11 50° SSE
Cosmos 372 Rocket 3.9 20:52:01 10° NNW 20:57:18 89° WSW 21:00:50 22° SSE
BREEZE-M DEB (TANK) 3.4 20:46:12 10° WSW 20:57:35 68° SSE 20:59:22 37° E
Cosmos 2369 4.3 20:52:41 10° N 20:57:57 38° ENE 20:59:14 33° E
Cosmos 1674 2.9 20:54:44 10° N 20:58:04 47° ENE 20:58:04 47° ENE
Meteor 1-21 Rocket 4.3 20:54:32 10° N 21:00:11 56° ENE 21:02:33 33° SE
Envisat 2.9 20:57:59 24° SSE 21:01:03 74° ENE 21:06:08 10° N
Cosmos 1758 3.2 20:59:36 35° SSE 21:01:06 64° E 21:05:04 10° NNE
Elektron 1 3.6 20:59:15 10° NW 21:02:30 81° SW 21:02:32 81° SW
ATLAS CENTAUR R/B 4.3 20:53:40 10° NW 21:05:57 45° WSW 21:09:50 15° S
Cosmos 962 Rocket 4.5 21:02:58 10° S 21:09:13 64° E 21:15:31 10° NNE
Cosmos 1939 Rocket 2.9 21:14:51 60° NE 21:14:51 60° NE 21:18:21 10° N
SJ-11-01 4.2 21:16:35 62° ESE 21:17:05 67° ENE 21:21:47 10° N
ATLAS 2AS CENTAUR R/B 3.4 21:09:20 10° NNW 21:17:08 49° NE 21:19:38 37° E
H-2A R/B 4.0 21:18:39 14° NE 21:18:39 14° NE 21:20:08 10° NNE
Cosmos 1805 4.1 21:16:21 10° SSW 21:20:08 49° WNW 21:23:56 10° N
Cosmos 1900 4.4 21:22:12 10° SSW 21:27:18 84° WNW 21:32:30 10° NNE
Cosmos 1076 Rocket 3.9 21:27:32 10° N 21:31:02 55° N 21:31:02 55° N
Cosmos 2278 3.6 21:27:05 10° NNW 21:32:45 66° ENE 21:33:04 65° E
Cosmos 2154 Rocket 4.4 21:26:40 10° SSW 21:32:49 63° W 21:39:04 10° N
Cosmos 2341 Rocket 4.1 21:38:45 10° SSW 21:44:56 72° W 21:51:11 10° N
Cosmos 2322 Rocket 4.3 21:42:28 10° NNE 21:44:25 13° NE 21:44:25 13° NE
Cosmos 1953 3.7 21:53:14 36° W 21:53:25 36° WNW 21:57:13 10° N
Resurs 01 Rocket 3.7 21:51:54 15° SW 21:54:28 24° W 21:58:04 10° NW
Cosmos 1697 Rocket 3.1 21:49:30 10° NNW 21:54:10 51° NNE 21:54:10 51° NNE
Cosmos 1656 3.7 21:50:22 10° NNW 21:55:33 73° N 21:55:33 73° N
Cosmos 1980 Rocket 3.3 21:51:16 10° N 21:55:08 32° NNE 21:55:08 32° NNE
FALCON 9 R/B 3.5 21:52:44 10° WSW 21:55:16 30° SSW 21:55:16 30° SSW
Cosmos 1959 Rocket 4.5 22:02:32 72° NNE 22:02:32 72° NNE 22:08:09 10° N
Cosmos 2366 rocket 4.2 22:09:14 62° NNE 22:09:14 62° NNE 22:14:25 10° N
Cosmos 2218 Rocket 4.0 22:12:21 74° NNW 22:12:21 74° NNW 22:17:59 10° N
Cosmos 2285 Rocket 4.2 22:07:26 10° SSW 22:13:50 69° WNW 22:20:17 10° NNE
ARGOS 4.2 22:24:04 40° N 22:24:04 40° N 22:27:29 10° NNW
SL-16 R/B 4.1 22:18:43 10° N 22:21:08 19° NNE 22:21:08 19° NNE
ERS-1 Rocket 4.4 22:32:02 34° NNW 22:32:02 34° NNW 22:34:54 10° NNW
CZ-3A R/B 4.3 22:26:45 10° WNW 22:47:45 57° NNE 22:48:58 52° NE
H-2A R/B 4.2 22:59:17 21° NNW 22:59:17 21° NNW 23:01:00 10° NNW
ATLAS 2AS CENTAUR R/B 3.7 23:00:41 10° NW 23:07:04 44° W 23:07:04 44° W
Cosmos 2322 Rocket 4.5 23:24:38 10° NNW 23:26:13 19° NNW 23:26:13 19° NNW
